Location: Nantong Television Tower
(32.0188°N, 120.8512°E)
Time: 02:58:06
(UTC+08:00)

Daily predictions for brighter satellites

Satellite Brightness Start Highest point End
(mag) Time Altitude Azimuth Time Altitude Azimuth Time Altitude Azimuth
SL-16 R/B 3.6 00:03:41 10° NNW 00:06:43 31° NW 00:06:43 31° NW
CZ-2C R/B 4.2 00:18:01 45° NE 00:18:01 45° NE 00:22:22 10° N
CZ-3 Stage 3 3.9 00:02:03 10° W 00:25:49 67° WSW 00:25:49 67° WSW
CZ-2C R/B 3.9 00:29:31 10° N 00:32:46 35° NNW 00:32:46 35° NNW
Cosmos 1943 4.4 00:29:23 10° N 00:34:12 35° NE 00:34:12 35° NE
NOSS 3-4 (A) 3.9 00:42:04 60° NE 00:42:04 60° NE 00:47:18 10° NNE
NOSS 3-4 (C) 3.9 00:42:10 60° NE 00:42:10 60° NE 00:47:24 10° NNE
CZ-4C R/B 3.5 00:46:51 10° NNW 00:53:58 53° ENE 00:56:34 39° ESE
Cosmos 1607 4.4 01:08:14 10° NNW 01:12:52 53° NW 01:12:52 53° NW
NPP 4.5 01:11:29 10° NNE 01:15:50 44° ENE 01:15:50 44° ENE
SL-08 R/B 4.2 01:35:38 47° ENE 01:35:38 47° ENE 01:40:15 10° N
CZ-2D R/B 4.2 01:37:11 10° NE 01:40:51 18° E 01:42:27 16° ESE
Cosmos 1844 Rocket 3.5 01:41:33 39° ESE 01:41:38 39° ESE 01:46:52 10° NE
Cosmos 2263 Rocket 3.2 01:43:47 35° NW 01:43:47 35° NW 01:48:36 10° N
Meteor 1-25 Rocket 4.2 01:49:14 85° NNE 01:49:14 85° NNE 01:54:50 10° N
Cosmos 2056 Rocket 4.0 01:50:47 54° NW 01:50:47 54° NW 01:55:18 10° N
USA 234 3.3 01:48:10 10° SE 01:54:40 74° NE 02:01:11 10° NW
COSMOS 2406 4.3 01:49:57 10° N 01:55:23 41° ENE 01:59:03 19° SE
Cosmos 1821 Rocket 4.3 01:54:38 50° SE 01:55:59 61° E 02:02:17 10° NNE
Cosmos 2278 Rocket 3.7 01:57:51 23° SE 01:59:15 26° ESE 02:03:50 10° NE
AQUA 4.1 01:55:20 10° N 01:59:21 61° NNW 01:59:21 61° NNW
IRS-1C 4.0 01:55:45 10° NNE 02:01:06 87° E 02:01:06 87° E
Cosmos 909 Rocket 4.5 02:00:32 46° W 02:01:25 49° WNW 02:08:12 10° NNE
Spot 4 Rocket 4.2 01:57:00 10° NNE 02:02:06 61° ESE 02:02:19 61° ESE
Cosmos 407 Rocket 4.0 02:00:05 10° N 02:05:09 54° ENE 02:06:36 40° ESE
Cosmos 1300 Rocket 4.1 02:06:10 55° N 02:06:10 55° N 02:09:36 10° N
Yuri Rocket 4.3 02:08:06 40° SE 02:08:06 40° SE 02:11:27 10° E
Delta 2 Rocket 4.3 02:10:27 49° SSE 02:10:27 49° SSE 02:15:39 10° ESE
NOSS 3-2 (C) 3.9 02:06:55 10° NW 02:14:35 68° WSW 02:17:54 38° S
CENTAUR R/B 4.4 02:07:39 10° NNW 02:14:56 38° NE 02:22:31 10° ESE
ERS-1 4.5 02:09:48 10° NNE 02:15:02 76° ESE 02:15:33 69° SSE
Meteor 2-21 Rocket 4.5 02:14:50 51° SSE 02:16:21 72° E 02:22:25 10° N
Cosmos 1812 3.8 02:18:15 10° NNW 02:20:48 38° NNW 02:20:48 38° NNW
IRS-1D 3.8 02:17:54 10° NNE 02:22:55 59° E 02:23:54 49° SSE
Okean 1 3.9 02:19:33 10° N 02:22:35 50° NNW 02:22:35 50° NNW
Cosmos 1400 Rocket 4.5 02:23:46 24° ESE 02:24:32 25° E 02:27:47 10° NE
ERS-2 4.0 02:21:30 10° N 02:23:25 23° NW 02:23:25 23° NW
Cosmos 1535 Rocket 4.4 02:24:48 56° SW 02:25:54 67° W 02:32:06 10° N
Cosmos 1809 Rocket 4.3 02:25:09 57° SSW 02:26:22 74° W 02:32:30 10° N
Cosmos 1867 3.9 02:22:49 10° NW 02:27:15 47° W 02:27:15 47° W
UNK 4.1 02:25:54 38° SW 02:29:44 85° NW 02:33:40 10° NE
Resurs 1-4 Rocket 2.5 02:25:51 10° NNE 02:31:06 58° E 02:32:52 39° SSE
Gbstr 26 Del rocket 3.3 02:32:08 51° NNW 02:32:08 51° NNW 02:35:36 10° NE
Okean 1-7 Rocket 3.5 02:32:39 10° N 02:37:13 72° W 02:37:22 71° WSW
NOSS 3-2 (A) 4.4 02:32:01 10° NW 02:39:02 38° WSW 02:39:52 37° SW
OAO 3 Copernicus 4.5 02:39:13 52° SSE 02:39:29 53° SSE 02:44:22 10° E
Cosmos 1954 Rocket 4.3 02:34:22 10° N 02:39:30 64° ENE 02:43:23 17° SSE
NOSS 2-2 (D) 3.2 02:40:13 80° SW 02:40:25 86° WNW 02:44:52 10° NNE
CZ-4C R/B 3.8 02:36:04 10° NW 02:41:39 29° W 02:41:39 29° W
Meteor 2-16 Rocket 4.4 02:40:22 42° SSW 02:42:38 83° W 02:48:48 10° N
Okean 1 Rocket 4.0 02:43:40 34° WNW 02:43:40 34° WNW 02:47:18 10° NNW
Tiangong 1 2.5 02:44:42 33° N 02:45:18 37° NNE 02:48:11 10° E
Cosmos 1315 Rocket 4.4 02:47:05 19° SE 02:49:12 31° E 02:52:49 10° NNE
Okean O Rocket 3.1 02:46:27 10° NE 02:50:19 31° E 02:52:57 17° SSE
Meteor 1-11 Rocket 3.9 02:50:14 42° SW 02:52:12 64° W 02:58:07 10° N
USA 161 3.9 02:54:32 15° NW 02:54:32 15° NW 02:55:12 10° NNW
NOSS 2-2 (C) 3.6 02:54:21 51° W 02:54:56 57° WNW 02:59:21 10° NNE
Cosmos 1452 Rocket 4.4 02:55:24 30° W 02:56:22 32° WNW 03:01:05 10° N
MOS 1-B 4.3 02:50:50 10° NNE 02:56:41 89° ESE 02:59:39 31° SSW
ARIANE 5 R/B 2.8 02:54:33 10° N 02:59:22 49° WNW 03:00:42 39° WSW
Cosmos 1602 4.5 03:02:37 35° WNW 03:02:37 35° WNW 03:06:03 10° NNW
CZ-2D R/B 3.7 02:59:01 10° NNE 03:02:58 61° E 03:04:46 30° S
Meteor 1-13 Rocket 4.3 02:57:43 10° NNW 03:03:17 58° W 03:06:05 30° SSW
OTV 4 0.6 03:03:35 64° N 03:03:43 65° NNE 03:06:38 10° ESE
Cosmos 1461 3.1 03:05:06 42° SW 03:06:40 74° WNW 03:11:20 10° NNE
Cosmos 1420 Rocket 4.3 03:07:07 35° SW 03:09:01 51° WNW 03:14:11 10° N
Cosmos 1455 Rocket 3.2 03:07:27 27° S 03:09:50 75° E 03:14:17 10° N
Skynet4D Del rocket 3.8 03:08:14 35° SW 03:10:03 50° S 03:15:29 10° ESE
SL-27 R/B 4.1 03:07:38 10° NW 03:09:34 23° WNW 03:09:34 23° WNW
Cosmos 1153 Rocket 4.5 03:10:02 23° SSW 03:14:11 78° W 03:20:35 10° N
Cosmos 1536 3.5 03:14:36 35° WSW 03:15:15 38° W 03:19:04 10° NNW
OAO 2 Rocket 3.8 03:14:39 32° SW 03:15:42 36° SSW 03:20:20 10° SE
Cosmos 1023 Rocket 4.3 03:14:24 10° NNW 03:19:29 80° WSW 03:24:32 10° S
SL-16 R/B 2.6 03:14:43 17° S 03:19:35 57° W 03:25:42 10° NNW
CZ-2D R/B 2.6 03:15:53 10° N 03:21:03 46° WNW 03:23:47 26° SW
Cosmos 1025 Rocket 3.3 03:18:05 10° NNW 03:22:11 45° W 03:23:51 30° SW
UNK 4.0 03:20:25 27° SSW 03:22:35 47° W 03:27:04 10° NNW
ASC 2 Rocket 4.1 03:22:35 25° SSW 03:23:15 26° S 03:26:40 10° ESE
Sakura Rocket 4.4 03:22:16 27° SW 03:23:49 31° SSW 03:29:48 10° SE
Cosmos 1844 Rocket 4.1 03:23:13 18° W 03:25:36 23° WNW 03:30:04 10° N
Meteor 1-23 Rocket 4.2 03:20:42 10° NNW 03:26:24 76° W 03:32:00 10° S
UNKNOWN OBJECT B 3.5 03:26:12 10° N 03:30:00 39° WNW 03:31:41 26° WSW
PSLV R/B 3.9 03:30:37 10° N 03:34:45 72° WNW 03:37:36 19° SSW
Cosmos 1544 Rocket 4.3 03:33:20 24° SW 03:35:12 35° W 03:39:16 10° NNW
USA 234 4.2 03:33:00 10° S 03:37:55 23° WSW 03:42:52 10° WNW
Cosmos 1633 4.1 03:37:58 19° W 03:38:32 19° WNW 03:41:14 10° NNW
Cosmos 1140 Rocket 3.6 03:34:14 10° NNW 03:39:10 49° WSW 03:44:04 10° S
COSMOS 2406 4.4 03:35:06 10° NW 03:39:20 21° W 03:41:00 19° SW
Cosmos 2297 3.7 03:35:37 18° SSW 03:39:55 77° WNW 03:45:37 10° NNE
BREEZE M DEB (TANK) 4.2 03:18:42 10° NW 03:40:06 81° SW 03:44:49 10° SE
CZ-4B DEB 4.3 03:36:35 10° NNE 03:42:11 86° ESE 03:47:45 10° SSW
Cosmos 2278 Rocket 3.1 03:39:44 19° WSW 03:43:05 34° WNW 03:48:13 10° N
Cosmos 1850 Rocket 4.0 03:39:12 10° NNW 03:44:21 61° WSW 03:49:32 10° S
ASTRO F (AKARI) 4.3 03:41:36 10° S 03:44:52 75° W 03:48:17 10° NNW
Cosmos 1741 Rocket 4.0 03:40:00 10° NNW 03:45:12 62° WSW 03:50:20 10° S
Cosmos 2016 Rocket 4.1 03:46:14 10° S 03:52:34 87° E 03:58:53 10° N
APEX 2.6 03:52:39 20° SW 03:54:19 56° WNW 03:57:17 10° NNE
ATLAS 5 CENTAUR R/B 2.9 03:51:46 10° NNW 03:57:52 68° ENE 04:04:19 10° SE
COSMOS 2487 3.7 03:58:04 10° NW 04:01:03 24° W 04:04:01 10° SSW
Cosmos 1302 Rocket 4.3 03:57:09 10° S 04:02:18 68° ESE 04:07:29 10° NNE
BREEZE-M DEB (TANK) 3.3 04:00:10 10° W 04:02:35 27° NNW 04:05:22 10° NE
CZ-4B R/B 3.5 03:57:04 10° N 04:02:36 54° WNW 04:08:04 10° SSW
Yuri Rocket 3.4 03:58:24 10° W 04:03:33 53° S 04:07:44 10° ESE
Cosmos 1725 Rocket 4.3 03:58:57 10° S 04:05:12 72° E 04:11:27 10° N
CENTAUR R/B 3.4 03:58:12 10° NW 04:05:49 47° WSW 04:13:37 10° S
Cosmos 2082 Rocket 2.9 04:00:54 10° NNW 04:06:34 61° ENE 04:12:10 10° SSE
Cosmos 2098 Rocket 3.9 04:04:20 10° SSE 04:07:15 38° E 04:10:42 10° NNE
Hubble Space Telescope 2.6 04:06:29 12° SW 04:07:50 13° SSW 04:09:54 10° S
Resurs 1-4 Rocket 4.0 04:07:38 10° NW 04:10:22 14° WNW 04:13:06 10° W
Star 37E S/N 40062 4.0 04:09:33 13° WSW 04:11:03 29° S 04:14:33 10° ESE
Cosmos 2285 Rocket 4.2 04:04:58 10° S 04:11:14 74° ESE 04:17:31 10° NNE
Okean-O 2.6 04:08:02 10° N 04:12:29 86° WNW 04:16:55 10° SSW
Feng Yun 1-1 Rocket 4.5 04:10:17 10° NNE 04:16:14 86° ESE 04:22:02 10° SSW
CZ-4B R/B 3.9 04:13:07 10° N 04:17:18 37° WNW 04:21:24 10° SW
Cosmos 1802 Rocket 4.4 04:14:30 10° SSW 04:20:19 43° W 04:26:07 10° N
Tiangong 1 2.3 04:19:19 10° W 04:21:46 22° SW 04:24:13 10° SSE
ADEOS Rocket 3.5 04:16:35 10° NNE 04:22:02 57° ESE 04:27:47 10° S
Orbus 21S 3.6 04:18:21 10° W 04:23:57 25° SSW 04:26:18 10° SE
